Regional Weather Roundup
Issued by NWS

Home | Current Version | Previous Version | Text Only | Print | Product List | Glossary On
Versions: 1 2 3 4 5 6 7 8 9 10 11 12 13 14 15 16 17 18 19 20 21 22 23 24 25 26 27 28 29 30 31 32 33 34 35 36 37 38 39 40 41 42 43 44 45 46 47 48 49 50
000
ASUS44 KMEG 282200
RWRTN
TENNESSEE HOURLY STATE WEATHER ROUNDUP
NATIONAL WEATHER SERVICE MEMPHIS TN
500 PM CDT SAT MAY 28 2016

TNZ002-004-019-021-049-052-054-088>092-282300-
WEST TENNESSEE

CITY           SKY/WX    TMP DP  RH WIND       PRES   REMARKS
MEMPHIS INTL   CLOUDY    84  70  62 SW6       30.01S
NWS MEMPHIS      N/A     83 N/A N/A MISG        N/A
JACKSON        CLOUDY    82  69  64 S5        30.02S
DYERSBURG      PTSUNNY   82  66  57 S6        30.00S
UNION CITY     SUNNY     84  68  58 S9        30.00S
PARIS          MOSUNNY   82  66  57 SW8       30.03S
LEXINGTON      MOSUNNY   84  66  54 S6        30.02F
$$

TNZ008-025-027-028-033-062-065-066-282300-
NORTH MIDDLE TENNESSEE

CITY           SKY/WX    TMP DP  RH WIND       PRES   REMARKS
NASHVILLE      PTSUNNY   80  65  59 SE7       30.08F
CLARKSVILLE    CLOUDY    81  67  62 SE12      30.04F
COOKEVILLE     SUNNY     79  64  61 NW5       30.10S
CROSSVILLE     MOSUNNY   81  59  47 VRB6      30.14F
$$

TNZ061-075-076-078-094-096-097-282300-
SOUTH MIDDLE TENNESSEE

CITY           SKY/WX    TMP DP  RH WIND       PRES   REMARKS
TULLAHOMA      SUNNY     72  70  94 CALM      30.12S
WINCHESTER     SUNNY     73  64  73 CALM      30.10F
MCMINNVILLE    SUNNY     73  64  73 W6        30.11F
COLUMBIA       SUNNY     82  66  57 S10       30.06S
SHELBYVILLE    SUNNY     79  66  65 S5        30.10F
$$

TNZ017-018-042-046-047-282300-
NORTHEAST TENNESSEE

CITY           SKY/WX    TMP DP  RH WIND       PRES   REMARKS
TRI CITIES     PTSUNNY   84  55  36 NW5       30.12F
$$

TNZ012-013-036-069-073-074-282300-
CENTRAL EAST TENNESSEE

CITY           SKY/WX    TMP DP  RH WIND       PRES   REMARKS
KNOXVILLE      PTSUNNY   83  62  49 CALM      30.09S
OAK RIDGE      SUNNY     85  59  41 VRB5      30.11S
GATLINBURG       N/A     82  59  44 CALM      30.09S
$$

TNZ083-085-099-282300-
SOUTHEAST TENNESSEE

CITY           SKY/WX    TMP DP  RH WIND       PRES   REMARKS
CHATTANOOGA    PTSUNNY   87  53  31 E5        30.07F
$$

SKY/WX REPORTED AS FAIR MEANS FEW OR NO CLOUDS BELOW
12 THOUSAND FEET.




USA.gov is the U.S. government's official web portal to all federal, state and local government web resources and services.